Regional Weather Roundup
Issued by NWS

Home | Current Version | Previous Version | Text Only | Print | Product List | Glossary Off
Versions: 1 2 3 4 5 6 7 8 9 10 11 12 13 14 15 16 17 18 19 20 21 22 23 24 25 26 27 28 29 30 31 32 33 34 35 36 37 38 39 40 41 42 43 44 45 46 47 48 49 50

000
ASUS43 KIND 250109
RWRIN

WEATHER ROUNDUP FOR INDIANA
NATIONAL WEATHER SERVICE INDIANAPOLIS IN
800 PM EST SAT JAN 24 2015

NOTE: "FAIR" INDICATES FEW OR NO CLOUDS BELOW 12,000 FEET WITH NO
SIGNIFICANT WEATHER AND/OR OBSTRUCTIONS TO VISIBILITY.

* - STATION DOES NOT REPORT WEATHER SUCH AS PRECIPITATION OR FOG.

+ - STATION NOT QUALITY CONTROLLED BY THE NATIONAL WEATHER SERVICE.
    USE DATA WITH CAUTION...ESPECIALLY DEWPOINT AND RELATIVE
    HUMIDITY OBSERVATIONS.

INZ001>003-010>013-019-020-250200-
NORTHWEST INDIANA

CITY           SKY/WX    TMP DP  RH WIND       PRES   REMARKS
GARY /AIRPORT/ PTCLDY    34  28  80 W6        29.69S WCI  29
KNOX *+        CLOUDY    36  26  66 SW7       29.68F
LA PORTE +     CLOUDY    37  34  88 SW6       29.68F
MICHIGAN CITY+ CLOUDY    36  30  80 W9        29.68F
MONTICELLO +   PTCLDY    36  34  92 SW6       29.72S
RENSSELAER +   PTCLDY    34  34 100 SW6       29.71S WCI  29
VALPARAISO     CLOUDY    35  32  88 SW7       29.69S WCI  29

$$

LMZ046-743>745-250200-
SOUTHERN LAKE MICHIGAN

STATION/POSITION TIME  TEMP WIND        PRES
                       AIR  DIR/SP/G
                 (UTC) (F)  (DEG/KT/KT) (MB)
MICHIGAN CITY    0100   35  210/ 12/ 13   N/A

$$

INZ004-005-014>016-021>024-250200-
NORTH CENTRAL INDIANA

CITY           SKY/WX    TMP DP  RH WIND       PRES   REMARKS
GOSHEN         CLOUDY    37  31  78 SW7       29.67S
LOGANSPORT +   CLOUDY    36  34  93 SW7       29.72F
PERU/GRISSOM   CLOUDY    37  34  88 SW8       29.71R
ROCHESTER +    CLOUDY    39  36  87 SW7       29.70S
SOUTH BEND     CLOUDY    38  32  79 SW7       29.67F
WARSAW +       CLOUDY    37  32  81 SW7       29.69R

$$

INZ006>009-017-018-025>027-250200-
NORTHEAST INDIANA

CITY           SKY/WX    TMP DP  RH WIND       PRES   REMARKS
ANGOLA *+      CLOUDY    36  25  64 W3        29.66R
AUBURN +       CLOUDY    36  32  87 SW7       29.68S
FORT WAYNE     CLOUDY    35  32  88 SW8       29.71R WCI  29
HUNTINGTON +   CLOUDY    36  30  79 SW5       29.71R

$$

INZ028-029-035-036-043>045-051>053-250200-
WEST CENTRAL INDIANA

CITY           SKY/WX    TMP DP  RH WIND       PRES   REMARKS
GREENCASTLE +  CLEAR     36  30  80 CALM      29.76S
LAFAYETTE      PTCLDY    35  33  92 SW3       29.73R
TERRE HAUTE    CLEAR     38  32  79 SW6       29.77S

$$

INZ030>032-037>040-046>048-054>057-064-065-250200-
CENTRAL INDIANA

CITY           SKY/WX    TMP DP  RH WIND       PRES   REMARKS
CP ATTERBURY + CLEAR     32  28  86 CALM      29.78S
GREENWOOD *+   PTCLDY    34  27  75 S6        29.77  WCI  29
INDIANAPOLIS   PTCLDY    34  29  82 SW10      29.75S WCI  26
-EAGLE CREEK   PTCLDY    36  30  79 SW6       29.75R
KOKOMO *+      CLOUDY    37  32  81 SW9       29.73R
MARION +       CLOUDY    36  32  87 SW8       29.74R
MT COMFORT *+  MOCLDY    36  25  64 S6        29.76R
SHELBYVILLE    MOCLDY    36  28  73 S9        29.76R
ZIONSVILLE +   CLOUDY    37  31  81 SW5       29.75R

$$

INZ033-034-041-042-049-050-058-059-250200-
EAST CENTRAL INDIANA

CITY           SKY/WX    TMP DP  RH WIND       PRES   REMARKS
MUNCIE         CLOUDY    38  30  73 SW8       29.73R

$$

INZ060-061-067>069-081>083-085>088-250200-
SOUTHWEST INDIANA

CITY           SKY/WX    TMP DP  RH WIND       PRES   REMARKS
EVANSVILLE     CLEAR     42  31  64 SW3       29.83R
HUNTINGBURG *+ CLEAR     37  28  70 S5        29.83R
WASHINGTON +   CLEAR     36  30  78 SW8       29.80S

$$

INZ062-063-066-070>080-084-089>092-250200-
SOUTH CENTRAL AND SOUTHEAST INDIANA

CITY           SKY/WX    TMP DP  RH WIND       PRES   REMARKS
BLOOMINGTON    CLEAR     37  31  78 SW8       29.78R

$$




USA.gov is the U.S. government's official web portal to all federal, state and local government web resources and services.